Regional Weather Roundup
Issued by NWS

Home | Current Version | Previous Version | Graphics & Text | Print | Product List | Glossary On
Versions: 1 2 3 4 5 6 7 8 9 10 11 12 13 14 15 16 17 18 19 20 21 22 23 24 25 26 27 28 29 30 31 32 33 34 35 36 37 38 39 40 41 42 43 44 45 46 47 48 49 50
000
ASUS43 KDMX 210501
RWRIA

WEATHER ROUNDUP FOR IOWA
NATIONAL WEATHER SERVICE DES MOINES IA
1200 AM CDT SAT OCT 21 2017

NOTE: "FAIR" INDICATES FEW OR NO CLOUDS BELOW 12,000 FEET WITH NO
SIGNIFICANT WEATHER AND/OR OBSTRUCTIONS TO VISIBILITY.

* - THESE STATIONS ARE NOT NWS STATIONS...THUS NOT UNDER NWS
QUALITY CONTROL.  THEY ALSO DO NOT REPORT WEATHER SUCH
AS PRECIPITATION OR FOG.

IAZ001>003-012>014-020>022-031>034-043>046-210600-
   NORTHWEST IOWA

CITY           SKY/WX    TMP DP  RH WIND       PRES   REMARKS
CHEROKEE *     PTCLDY    65  57  76 S17G31    29.67F
DENISON *      PTCLDY    64  57  77 S22G29    29.72F
LE MARS *      MOCLDY    68  57  68 S18G30    29.63S
ORANGE CITY *  CLOUDY    66  61  82 S18G24    29.63F
SHELDON *      PTCLDY    64  57  77 S17G28    29.63F
SIOUX CITY     PTCLDY    68  58  70 S21G38    29.63F
SPENCER        CLOUDY    64  56  75 S24G30    29.68F
STORM LAKE *   PTCLDY    64  55  72 S24G33    29.69F
$$

IAZ055>058-069>071-079>083-090>094-210600-
   SOUTHWEST IOWA

CITY           SKY/WX    TMP DP  RH WIND       PRES   REMARKS
ATLANTIC *     CLOUDY    64  57  77 S15G25    29.76F
AUDUBON *      CLOUDY    64  57  77 S16G23    29.77S
CLARINDA *     CLEAR     64  57  77 S14       29.80F
COUNCIL BLFS * MOCLDY    66  59  77 S20G25    29.72F
CRESTON *      CLEAR     63  54  72 S15G22    29.83F
HARLAN  *      PTCLDY    64  57  77 S17G25    29.77F
LAMONI         CLEAR     62  54  74 S14G21    29.86S
RED OAK *      CLOUDY    64  57  77 S15G23    29.75F
SHENANDOAH *   MOCLDY    68  57  68 S20G26    29.75F
$$

IAZ047>049-059>061-072>074-084-210600-
   CENTRAL IOWA

CITY           SKY/WX    TMP DP  RH WIND       PRES   REMARKS
AMES           CLEAR     61  54  77 S13       29.83S
ANKENY *       CLEAR     63  52  67 S13G21    29.85S
BOONE *        PTCLDY    61  54  77 S14G23    29.81S
CHARITON *     CLEAR     63  54  72 S18G24    29.86S
DES MOINES     PTCLDY    63  52  67 S13       29.84S
GRINNELL*      CLOUDY    61  49  65 S15       29.89S
KNOXVILLE *    CLEAR     64  52  63 S16       29.85S
MARSHALLTOWN   CLEAR     62  50  64 S16G23    29.85S
NEWTON *       CLEAR     59  50  72 S12       29.87S
PELLA *        CLEAR     61  50  66 S10       29.88F
PERRY *          N/A     62  52  69 S12       29.80F
$$

IAZ004>006-015-016-023>025-035-036-210600-
   NORTH CENTRAL IOWA

CITY           SKY/WX    TMP DP  RH WIND       PRES   REMARKS
ALGONA *       CLOUDY    64  55  72 S24G32    29.74S
CLARION *      CLOUDY    61  54  77 S21G30    29.78F
ESTHERVILLE    CLOUDY    62  56  80 S18G26    29.71S
FORT DODGE *   PTCLDY    62  53  72 S13G23    29.77F
MASON CITY     CLOUDY    61  50  67 S18G26    29.81F
FOREST CITY *    N/A     63  52  67 S21G28    29.78F
WEBSTER CITY * PTCLDY    61  52  72 S14G24    29.78S
IOWA FALLS *     N/A     60  51  72 SE12      29.84S
$$

IAZ007>011-017>019-026>030-037>042-050>054-066-210600-
   NORTHEAST IOWA

CITY           SKY/WX    TMP DP  RH WIND       PRES   REMARKS
CEDAR RAPIDS   PTCLDY    63  49  60 S13       29.91S
CHARLES CITY * CLOUDY    63  48  59 S14G21    29.86R
CLINTON *      CLOUDY    65  50  58 S12       29.98S
DECORAH *      PTCLDY    63  46  55 S10G17    29.87S
DUBUQUE        CLOUDY    62  47  57 S14       29.95S
MONTICELLO *   MOCLDY    63  48  59 SE9       29.93S
OELWEIN *      CLOUDY    64  50  59 S17G23    29.89F
WATERLOO       CLOUDY    61  48  62 S16       29.86S
$$

IAZ064-065-067-068-078-210600-
   EAST CENTRAL IOWA

CITY           SKY/WX    TMP DP  RH WIND       PRES   REMARKS
DAVENPORT      CLOUDY    66  49  54 S16G24    29.98S
IOWA CITY      PTCLDY    65  50  58 S12       29.94F
MUSCATINE *    CLOUDY    66  50  55 S10       29.95S
QUAD CITIES    CLOUDY    68  49  50 S15G25    29.96S
$$

IAZ062-063-075>077-085>089-095>099-210600-
   SOUTHEAST IOWA

CITY           SKY/WX    TMP DP  RH WIND       PRES   REMARKS
BURLINGTON     CLOUDY    64  51  62 S12       29.97S
FAIRFIELD *    CLEAR     64  48  55 S15       29.92S
FORT MADISON * MOCLDY    64  52  63 SE9       29.97F
KEOKUK *       MOCLDY    66  50  55 S8G17     29.96S
OSKALOOSA *      N/A     62  51  67 S14       29.90S
OTTUMWA        PTCLDY    64  51  62 S15       29.90S
WASHINGTON *   CLOUDY    63  50  63 S10       29.94S
$$

ABBREVIATIONS USED IN REMARKS
   TC - TEMPERATURES IN CELSIUS
  WCI - WIND CHILL INDEX
   HX - HEAT INDEX
  VSB - VISIBILITY
$$





USA.gov is the U.S. government's official web portal to all federal, state and local government web resources and services.